Three Rivers, MI

11:45 PM EDT on March 25, 2017 (GMT -0400)
Three Rivers Municipal-Haines

Weather History for KHAI - June, 2014

Change the Weather History Date:

Sunday, June 15, 2014

  Actual Average Record
Temperature  
Mean Temperature 69 °F -  
Max Temperature 83 °F 82 °F 95 °F (1987)
Min Temperature 55 °F 59 °F 44 °F (1959)
Cooling Degree Days 4    
Growing Degree Days 19 (Base 50)    
Moisture  
Dew Point 56 °F    
Average Humidity 60    
Maximum Humidity 83    
Minimum Humidity 42    
Precipitation  
Precipitation 0.00 in - - ()
Sea Level Pressure  
Sea Level Pressure 30.02 in    
Wind  
Wind Speed 7 mph (SSE)    
Max Wind Speed 21 mph    
Max Gust Speed 28 mph    
Visibility 10 miles    
Events      
Averages and records for this station are not official NWS values.
T = Trace of Precipitation, MM = Missing Value Source: NWS Daily Summary

Daily Weather History Graph

Daily Weather History Graph

Search for Another Location

Airport or City:

Trip Planner

Search our weather history database for the weather conditions in past years. The results will help you decide how hot, cold, wet, or windy it might be!

Date:

Astronomy

Jun. 15, 2014 Rise Set
Actual Time 6:06 AM EDT 9:19 PM EDT
Civil Twilight 5:31 AM EDT 9:53 PM EDT
Nautical Twilight 4:47 AM EDT 10:38 PM EDT
Astronomical Twilight 3:54 AM EDT 11:31 PM EDT
Moon 11:26 PM EDT (6/15) 9:01 AM EDT (6/15)
Length of Visible Light 16h 22m
Length of Day
15h 13m
Waning Gibbous, 91% of the Moon is Illuminated
Jun 15
Waning Gibbous
Jun 19
Last Quarter
Jun 27
New
Jul 5
First Quarter
Jul 12
Full

Hourly Weather History & Observations

Time (EDT) Temp. Heat Index Dew Point Humidity Pressure Visibility Wind Dir Wind Speed Gust Speed Precip Events Conditions
12:15 AM 58.8 °F - 51.4 °F 76% 30.09 in 10.0 mi Calm Calm - N/A   Clear
12:35 AM 56.7 °F - 51.6 °F 83% 30.09 in 10.0 mi Calm Calm - N/A   Clear
12:54 AM 58.8 °F - 51.8 °F 77% 30.08 in 10.0 mi ESE 5.8 mph - N/A   Clear
1:15 AM 61.3 °F - 50.5 °F 68% 30.08 in 10.0 mi ESE 5.8 mph - N/A   Clear
1:35 AM 61.7 °F - 50.4 °F 66% 30.07 in 10.0 mi ESE 5.8 mph - N/A   Clear
1:54 AM 61.2 °F - 50.4 °F 68% 30.07 in 10.0 mi ESE 6.9 mph - N/A   Clear
2:15 AM 61.0 °F - 50.0 °F 67% 30.07 in 10.0 mi Calm Calm - N/A   Clear
2:35 AM 55.9 °F - 49.8 °F 80% 30.07 in 10.0 mi SE 3.5 mph - N/A   Clear
2:54 AM 59.2 °F - 50.0 °F 72% 30.07 in 10.0 mi SE 6.9 mph - N/A   Clear
3:15 AM 60.8 °F - 50.0 °F 68% 30.07 in 10.0 mi SE 4.6 mph - N/A   Clear
3:35 AM 59.9 °F - 49.3 °F 68% 30.07 in 10.0 mi SE 5.8 mph - N/A   Clear
3:54 AM 59.5 °F - 49.3 °F 69% 30.07 in 10.0 mi SSE 4.6 mph - N/A   Clear
4:15 AM 60.3 °F - 49.1 °F 67% 30.06 in 10.0 mi SE 5.8 mph - N/A   Clear
4:35 AM 60.3 °F - 49.1 °F 67% 30.06 in 10.0 mi SSE 5.8 mph - N/A   Clear
4:54 AM 59.9 °F - 49.1 °F 67% 30.05 in 10.0 mi SE 8.1 mph - N/A   Clear
5:15 AM 59.5 °F - 49.1 °F 68% 30.05 in 10.0 mi SSE 4.6 mph - N/A   Clear
5:35 AM 58.6 °F - 48.9 °F 70% 30.06 in 10.0 mi SE 3.5 mph - N/A   Clear
5:55 AM 58.1 °F - 48.9 °F 71% 30.07 in 10.0 mi SE 3.5 mph - N/A   Clear
6:15 AM 57.4 °F - 49.1 °F 74% 30.07 in 10.0 mi SE 4.6 mph - N/A   Clear
6:34 AM 58.1 °F - 49.5 °F 73% 30.08 in 10.0 mi ESE 4.6 mph - N/A   Clear
7:15 AM 59.4 °F - 51.1 °F 74% 30.08 in 10.0 mi ESE 4.6 mph - N/A   Clear
7:34 AM 60.8 °F - 52.0 °F 73% 30.08 in 10.0 mi Calm Calm - N/A   Clear
7:55 AM 63.3 °F - 52.7 °F 68% 30.09 in 10.0 mi SSE 4.6 mph - N/A   Clear
8:15 AM 64.6 °F - 52.2 °F 64% 30.09 in 10.0 mi South 8.1 mph - N/A   Clear
8:34 AM 65.3 °F - 52.5 °F 63% 30.09 in 10.0 mi South 8.1 mph - N/A   Clear
8:55 AM 66.4 °F - 53.4 °F 63% 30.09 in 10.0 mi South 9.2 mph - N/A   Clear
9:15 AM 67.5 °F - 54.0 °F 62% 30.08 in 10.0 mi SSE 9.2 mph - N/A   Clear
9:35 AM 68.9 °F - 54.5 °F 60% 30.08 in 10.0 mi South 10.4 mph - N/A   Clear
9:55 AM 70.3 °F - 55.2 °F 59% 30.07 in 10.0 mi South 10.4 mph 16.1 mph N/A   Clear
10:14 AM 71.6 °F - 55.2 °F 56% 30.07 in 10.0 mi South 12.7 mph 18.4 mph N/A   Clear
10:35 AM 72.9 °F - 56.5 °F 56% 30.06 in 10.0 mi SSE 9.2 mph - N/A   Clear
10:55 AM 73.2 °F - 55.6 °F 54% 30.06 in 10.0 mi SSE 8.1 mph - N/A   Clear
11:14 AM 73.9 °F - 55.6 °F 53% 30.06 in 10.0 mi South 13.8 mph 20.7 mph N/A   Clear
11:35 AM 74.3 °F - 56.5 °F 54% 30.07 in 10.0 mi SSE 10.4 mph - N/A   Clear
11:55 AM 74.8 °F - 56.1 °F 52% 30.06 in 10.0 mi South 15.0 mph 18.4 mph N/A   Clear
12:15 PM 76.1 °F - 56.3 °F 50% 30.05 in 10.0 mi South 10.4 mph 17.3 mph N/A   Clear
12:35 PM 76.6 °F - 57.2 °F 51% 30.04 in 10.0 mi South 12.7 mph 16.1 mph N/A   Clear
12:55 PM 77.0 °F - 57.0 °F 50% 30.04 in 10.0 mi SSE 12.7 mph 24.2 mph N/A   Clear
1:15 PM 78.1 °F - 57.4 °F 49% 30.03 in 10.0 mi SSE 12.7 mph 19.6 mph N/A   Clear
1:35 PM 79.0 °F - 57.4 °F 47% 30.03 in 10.0 mi South 12.7 mph 19.6 mph N/A   Clear
1:55 PM 79.5 °F - 57.7 °F 47% 30.02 in 10.0 mi South 15.0 mph 18.4 mph N/A   Clear
2:15 PM 79.0 °F - 57.4 °F 47% 30.00 in 10.0 mi South 13.8 mph 21.9 mph N/A   Clear
2:35 PM 80.1 °F 80.5 °F 57.4 °F 46% 29.99 in 10.0 mi South 18.4 mph 23.0 mph N/A   Scattered Clouds
2:55 PM 80.2 °F 80.6 °F 57.7 °F 46% 29.97 in 10.0 mi South 13.8 mph 21.9 mph N/A   Clear
3:15 PM 81.9 °F 82.1 °F 59.2 °F 46% 29.96 in 10.0 mi South 16.1 mph 21.9 mph N/A   Clear
3:35 PM 81.5 °F 81.5 °F 57.6 °F 44% 29.95 in 10.0 mi SSE 15.0 mph 20.7 mph N/A   Clear
3:55 PM 82.2 °F 82.1 °F 58.5 °F 44% 29.94 in 10.0 mi South 17.3 mph 23.0 mph N/A   Clear
4:15 PM 83.3 °F 82.9 °F 58.3 °F 42% 29.92 in 10.0 mi South 18.4 mph 24.2 mph N/A   Clear
4:34 PM 82.9 °F 82.7 °F 58.3 °F 43% 29.91 in 10.0 mi SSE 16.1 mph 25.3 mph N/A   Clear
4:55 PM 82.9 °F 82.8 °F 59.2 °F 44% 29.93 in 10.0 mi South 20.7 mph 27.6 mph N/A   Clear
5:15 PM 82.0 °F 82.2 °F 59.4 °F 46% 29.94 in 10.0 mi South 18.4 mph 25.3 mph N/A   Clear
5:34 PM 80.8 °F 81.3 °F 59.5 °F 48% 29.94 in 10.0 mi South 15.0 mph 20.7 mph N/A   Scattered Clouds
5:55 PM 81.0 °F 81.7 °F 60.8 °F 50% 29.94 in 10.0 mi South 12.7 mph - N/A   Scattered Clouds
6:15 PM 81.0 °F 81.8 °F 61.5 °F 51% 29.95 in 10.0 mi South 11.5 mph - N/A   Clear
6:34 PM 81.1 °F 82.1 °F 61.9 °F 52% 29.94 in 10.0 mi South 10.4 mph 19.6 mph N/A   Mostly Cloudy
6:55 PM 81.0 °F 82.2 °F 63.1 °F 54% 29.94 in 10.0 mi South 10.4 mph 16.1 mph N/A   Overcast
7:15 PM 81.1 °F 82.4 °F 63.0 °F 54% 29.94 in 10.0 mi South 11.5 mph 18.4 mph N/A   Scattered Clouds
7:35 PM 81.0 °F 82.3 °F 63.3 °F 55% 29.94 in 10.0 mi South 10.4 mph - N/A   Scattered Clouds
7:55 PM 80.6 °F 82.0 °F 63.5 °F 56% 29.94 in 10.0 mi South 8.1 mph - N/A   Overcast
8:15 PM 80.6 °F 81.9 °F 63.1 °F 55% 29.94 in 10.0 mi South 9.2 mph - N/A   Overcast
8:35 PM 80.1 °F 81.6 °F 63.7 °F 57% 29.94 in 10.0 mi South 11.5 mph - N/A   Mostly Cloudy
8:55 PM 79.5 °F - 63.7 °F 58% 29.94 in 10.0 mi South 8.1 mph - N/A   Scattered Clouds
9:15 PM 77.9 °F - 63.7 °F 61% 29.94 in 10.0 mi SSW 8.1 mph - N/A   Scattered Clouds
9:35 PM 77.2 °F - 63.9 °F 63% 29.94 in 10.0 mi South 6.9 mph - N/A   Clear
9:55 PM 76.6 °F - 64.0 °F 65% 29.95 in 10.0 mi South 6.9 mph - N/A   Clear
10:15 PM 75.7 °F - 64.4 °F 68% 29.95 in 10.0 mi South 5.8 mph - N/A   Clear
10:35 PM 75.2 °F - 64.4 °F 69% 29.96 in 10.0 mi South 5.8 mph - N/A   Clear
10:55 PM 73.9 °F - 64.6 °F 72% 29.96 in 10.0 mi South 5.8 mph - N/A   Clear
11:15 PM 74.1 °F - 64.8 °F 72% 29.97 in 10.0 mi South 5.8 mph - N/A   Clear
11:35 PM 73.4 °F - 65.1 °F 75% 29.97 in 10.0 mi South 5.8 mph - N/A   Clear
11:55 PM 73.4 °F - 65.3 °F 76% 29.97 in 10.0 mi South 6.9 mph - N/A   Clear